Location: Zilina
(49.2167°N, 18.7333°E)
Time: 13:42:35
(UTC+01:00)

ISS - Visible Passes

Search period start: 17 December 2018 00:00
Search period end: 27 December 2018 00:00
Orbit: 401 x 408 km, 51.6° (Epoch: 18 December)

Date Brightness Start Highest point End Pass type
(mag) Time Alt. Az. Time Alt. Az. Time Alt. Az.
23 Dec -0.5 06:14:29 10° SSE 06:15:55 12° SE 06:17:23 10° ESE visible
24 Dec -2.1 06:56:38 10° SW 06:59:41 37° SSE 07:02:46 10° E visible
25 Dec -1.4 06:04:52 10° SSW 06:07:34 24° SE 06:10:16 10° E visible
26 Dec -0.8 05:13:33 10° S 05:15:30 15° SE 05:17:27 10° E visible
26 Dec -3.4 06:48:14 10° WSW 06:51:30 67° SSE 06:54:47 10° ENE visible
